Weather Roundup
Issued by NWS Chicago, IL

Home | Current Version | Previous Version | Graphics & Text | Print | Product List | Glossary On
Versions: 1 2 3 4 5 6 7 8 9 10 11 12 13 14 15 16 17 18 19 20 21 22 23 24 25 26 27 28 29 30 31 32 33 34 35 36 37 38 39 40 41 42 43 44 45 46 47 48 49 50
000
NZUS59 KLOT 010408
HRRLOT

CHICAGO AREA WEATHER ROUNDUP
NATIONAL WEATHER SERVICE CHICAGO/ROMEOVILLE IL
1100 PM CDT FRI JUL 31 2015

NOTE: "FAIR" INDICATES FEW OR NO CLOUDS BELOW 12,000 FEET WITH NO
SIGNIFICANT WEATHER AND/OR OBSTRUCTIONS TO VISIBILITY.

* THESE STATIONS ARE NOT UNDER NWS QUALITY CONTROL. THEY ALSO MAY NOT
  REPORT WEATHER SUCH AS PRECIPITATION OR FOG.

ILZ005-006-012>014-019>023-010500-
NORTHEAST ILLINOIS

CITY           SKY/WX    TMP DP  RH WIND       PRES   REMARKS
OHARE          CLEAR     72  52  49 NW6       29.97S
MIDWAY         CLEAR     75  50  41 W7        29.97S
AURORA         CLEAR     62  55  77 NW6       30.00R
LANSING*       CLEAR     70  51  50 CALM      29.98S
JOLIET*        CLEAR     71  56  58 CALM      29.99S
WAUKEGAN       CLEAR     67  53  61 W3        29.97R
DUPAGE AIRPORT CLEAR     69  53  56 W7        29.99R
WHEELING       CLEAR     72  51  47 NW6       29.98S
KANKAKEE*      CLEAR     65  61  85 SW5       30.00S
MORRIS*        CLEAR     64  59  83 NW6       29.99S
LEWIS AIRPORT* CLEAR     67  52  58 NW6       29.99S
NORTHERLY IS     N/A     77  49  37 NW6         N/A
$$

WIZ051-052-058>065-066-070>072-010500-
SOUTHEAST WISCONSIN

CITY           SKY/WX    TMP DP  RH WIND       PRES   REMARKS
MILWAUKEE      PTCLDY    73  50  44 W8        29.96R
KENOSHA*       CLEAR     62  52  69 W7        29.98R
RACINE*        CLEAR     70  50  49 W5        29.98R
BURLINGTON     CLEAR     63  51  65 W6        29.98S
WAUKESHA       CLEAR     64  50  59 W7        29.99R
WEST BEND      MOCLDY    64  50  59 NW5       29.97S
$$

INZ001>003-010>013-019-020-010500-
NORTHWEST INDIANA

CITY           SKY/WX    TMP DP  RH WIND       PRES   REMARKS
GARY*          CLEAR     71  52  51 W7        29.98R
MICHIGAN CITY* NOT AVBL
RENSSELAER*    NOT AVBL
VALPARAISO     CLEAR     69  57  65 W5        29.98S
$$

LMZ740>746-010500-
SOUTHERN LAKE MICHIGAN

STATION/POSITION TIME  SKY/WX   TEMP WIND        PRES    VSBY
                                AIR  DIR/SP/G
                 (UTC)          (F)  (DEG/KT/KT) (MB)    (MI)
HARRISON CRIB    0300            77  310/ 11/ 13   N/A
BURNHAM HARBOR   0400            76  310/  5/  9   N/A
CALUMET HARBOR   0300            77  290/  3/  7   N/A
BURNS HARBOR     0300            75  320/  7/  8 1015.2R
MICHIGAN CITY    0300            75  290/ 11/ 12   N/A
$$

ABBREVIATIONS USED IN REMARKS
   TC - TEMPERATURE IN CELSIUS
  WCI - WIND CHILL INDEX
   HX - HEAT INDEX
  VSB - VISIBILITY
$$



USA.gov is the U.S. government's official web portal to all federal, state and local government web resources and services.